Location: Namasale
(1.5000°N, 32.6167°E)
Time: 23:21:05
(UTC+00:00)

Vanguard 3 - Pass Details

Date: 23 April 2021
Orbit: 507 x 3262 km, 33.4° (Epoch: 17 May)

Event Time Altitude Azimuth Distance (km) Brightness Sun altitude
Rises 20:38:19 0° 264° (W) 5,976 11.8 -67.6°
Reaches altitude 10° 20:44:23 10° 279° (W) 4,378 11.0 -68.7°
Enters shadow 20:44:27 10° 279° (W) 4,361 11.0 -68.7°
